[[{"header":{"parameterUnit":"m.s-1","parameterCategory":1,"la1":30.2991,"la2":30.254,"lo1":-89.0895,"lo2":-89.0444,"dy":0.0017,"dx":0.0017,"nx":28,"ny":28,"refTime":"2025-03-10T03:00:00:Z","depth":0,"parameterNumber":2,"parameterNumberName":"U-component_of_WINDS"},"data":[0,0,0,0,0,0,0,0,0,0,0,0,0,0,0,0,0,0,0,0,0,0,0,0,0,0,0,0,0,0,0,0,0,0,0,0,0,0,0,0,0,0,0,0,0,0,0,0,0,0,0,0,0,0,0,0,0,0,0.5892,0.5893,0,0.5993,0.5994,0.5995,0.599,0.5989,0.5987,0.5986,0.6092,0.6096,0.61,0,0,0,0,0,0,0,0,0,0,0,0,0,0.5696,0.57,0.5892,0.5893,0.5894,0.5993,0.5994,0.5995,0.599,0.5989,0.5987,0.5985,0.6091,0.6096,0.6101,0,0,0,0,0,0,0,0,0,0,0,0,0,0.5788,0.5701,0.5891,0.5903,0.5906,0.5992,0.5994,0.5996,0.5991,0.5988,0.5986,0.5984,0.6089,0.6095,0.6102,0.6184,0,0,0.6121,0.6123,0,0,0,0,0,0,0,0,0.5783,0.5795,0.59,0.5903,0.5905,0.5976,0.5964,0.6059,0.5991,0.5958,0.5986,0.5983,0.6056,0.6065,0.6088,0.6189,0.6193,0.6121,0.6125,0.6128,0.613,0,0,0,0,0,0,0,0.5776,0.5791,0.5932,0.5902,0.5905,0.5904,0.5915,0.5982,0.6018,0.5961,0.5961,0.5973,0.6057,0.6082,0.6091,0.6195,0.6121,0.6127,0.6131,0.6133,0.6368,0.6371,0,0,0,0,0,0,0.5767,0.5785,0.5929,0.5935,0.5837,0.591,0.5922,0.5956,0.6017,0.6025,0.5975,0.5972,0.6073,0.6084,0.6095,0.6196,0.6128,0.6134,0.6137,0.6366,0.6369,0.6371,0,0,0,0,0,0,0.5763,0.578,0.5924,0.586,0.5878,0.5915,0.5954,0.5959,0.5985,0.6028,0.6034,0.5994,0.6071,0.6086,0.6162,0.6199,0.6136,0.6142,0.6363,0.6367,0.637,0.6398,0,0,0,0,0,0,0.5757,0.5778,0.581,0.5861,0.5882,0.5989,0.5956,0.5963,0.5995,0.5993,0.6048,0.6055,0.6071,0.6152,0.6168,0.6207,0.6147,0.636,0.6365,0.6369,0.6394,0.6402,0.6409,0,0,0,0,0,0.575,0.5814,0.5811,0.5829,0.5922,0.5991,0.6004,0.602,0.5998,0.6031,0.6058,0.6053,0.6192,0.616,0.6178,0.6219,0.6357,0.6363,0.6369,0.639,0.6401,0.6409,0,0,0,0,0,0,0.5768,0.5821,0.5819,0.5901,0.5941,0.599,0.6032,0.603,0.6079,0.6075,0.6094,0.6106,0.6182,0.6208,0.6171,0.6302,0.6272,0.6281,0.6283,0.6293,0.63,0.6293,0.6152,0,0,0,0,0,0.5781,0.5832,0.5876,0.5945,0.5965,0.5995,0.6026,0.6034,0.6078,0.6096,0.6128,0.6172,0.6225,0.626,0.6311,0.6397,0.6409,0.6434,0.6441,0.6448,0.6456,0.6504,0.6515,0.639,0.639,0.639,0,0,0.5809,0.5845,0.5876,0.5949,0.5982,0.6035,0.6009,0.6067,0.6107,0.6105,0.6178,0.6204,0.6253,0.6334,0.6371,0.6358,0.6493,0.6455,0.6459,0.6465,0.6511,0.6522,0.6533,0.6394,0.6393,0.6392,0,0,0.5888,0.592,0.598,0.6013,0.6062,0.6081,0.6096,0.6145,0.6161,0.6235,0.6234,0.6282,0.6374,0.6409,0.6439,0.653,0.6528,0.6546,0.6587,0.6633,0.6643,0.6652,0.6686,0.6697,0.6554,0.6554,0.6554,0,0.5918,0.5998,0.6012,0.607,0.6102,0.61,0.6162,0.6194,0.6258,0.628,0.6264,0.6378,0.6411,0.6501,0.6523,0.6546,0.6564,0.6541,0.664,0.6649,0.6658,0.669,0.6703,0.6556,0.6556,0.6556,0.6555,0,0.6032,0.6087,0.613,0.6191,0.6228,0.6288,0.6311,0.6347,0.6352,0.6373,0.6448,0.6487,0.6547,0.6568,0.6575,0.6659,0.6649,0.6636,0.6607,0.6672,0.6702,0.6715,0.6559,0.6558,0.6558,0.6557,0,0,0.6127,0.6193,0.6209,0.6237,0.629,0.6334,0.6393,0.645,0.6481,0.6524,0.6576,0.6652,0.664,0.6674,0.6684,0.6724,0.6795,0.6707,0.6708,0.6723,0.6891,0.6902,0.6916,0.6793,0.6795,0.6797,0.6887,0,0.6213,0.6318,0.6332,0.6425,0.6477,0.6475,0.6527,0.6566,0.6586,0.6634,0.6657,0.6711,0.6691,0.6711,0.6751,0.6778,0.6829,0.6771,0.6842,0.6844,0.6831,0.6932,0.6943,0.7027,0.6899,0.6901,0.6903,0,0.6328,0.6373,0.6472,0.6518,0.654,0.6586,0.6639,0.6684,0.6728,0.674,0.6777,0.6782,0.6844,0.681,0.6897,0.6857,0.6887,0.6904,0.6908,0.6916,0.6879,0.6945,0.7054,0.7067,0.6922,0.692,0.6919,0,0.6389,0.6475,0.6545,0.6568,0.6623,0.6656,0.668,0.6722,0.6755,0.6802,0.6824,0.6877,0.6907,0.6948,0.6967,0.6941,0.7053,0.7021,0.7066,0.7066,0.7091,0.709,0.7208,0.7107,0.7107,0.7107,0.7107,0,0.6484,0.6545,0.6573,0.6616,0.6684,0.6699,0.6766,0.6789,0.6826,0.6874,0.6876,0.6921,0.6942,0.6991,0.7006,0.7076,0.7089,0.7102,0.7105,0.7103,0.7101,0.7124,0.7119,0.711,0.7109,0.7109,0.7108,0,0.6565,0.6586,0.6663,0.6708,0.672,0.6768,0.6808,0.685,0.6869,0.693,0.6945,0.6976,0.7034,0.7056,0.7127,0.7137,0.7218,0.7216,0.7203,0.7204,0.7249,0.7245,0.7388,0.7408,0.7292,0.7293,0.7293,0,0.6626,0.6672,0.6722,0.6754,0.6779,0.683,0.6864,0.688,0.6915,0.6968,0.7004,0.7061,0.7107,0.7199,0.7229,0.7283,0.7283,0.7329,0.7292,0.7287,0.7286,0.7283,0.7289,0.7337,0.7338,0.7339,0.734,0,0.6731,0.6739,0.6787,0.6838,0.6878,0.692,0.696,0.6986,0.7008,0.7048,0.7106,0.7142,0.7213,0.727,0.7325,0.7351,0.735,0.7351,0.7365,0.7364,0.7355,0.7362,0.7224,0.7349,0.7348,0.7347,0.7347,0.7346,0.6805,0.6846,0.6888,0.6941,0.6972,0.701,0.7052,0.7076,0.7124,0.7183,0.7189,0.7252,0.7294,0.7368,0.7396,0.7446,0.7434,0.7453,0.7458,0.7463,0.7467,0.7345,0.7455,0.7455,0.7455,0.7455,0.7455,0,0.6912,0.6938,0.6987,0.7043,0.7084,0.7077,0.7121,0.7157,0.7212,0.7251,0.7296,0.7363,0.7418,0.7451,0.7506,0.754,0.7541,0.7554,0.7553,0.7559,0.7474,0.7457,0.7552,0.7552,0.7552,0.7552,0.7552,0.7552,0.6973,0.7042,0.7055,0.714,0.7166,0.7226,0.7252,0.7287,0.7318,0.7392,0.7437,0.7458,0.7495,0.7552,0.7602,0.7611,0.7632,0.7646,0.7654,0.7575,0.7565,0.7555,0.754,0.765,0.765,0.7735,0.7735,0.7736]},{"header":{"parameterUnit":"m.s-1","parameterCategory":1,"la1":30.2991,"la2":30.254,"lo1":-89.0895,"lo2":-89.0444,"dy":0.0017,"dx":0.0017,"nx":28,"ny":28,"refTime":"2025-03-10T03:00:00:Z","depth":0,"parameterNumber":3,"parameterNumberName":"V-component_of_WINDS"},"data":[0,0,0,0,0,0,0,0,0,0,0,0,0,0,0,0,0,0,0,0,0,0,0,0,0,0,0,0,0,0,0,0,0,0,0,0,0,0,0,0,0,0,0,0,0,0,0,0,0,0,0,0,0,0,0,0,0,0,3.3451,3.3451,0,3.3462,3.3463,3.3463,3.338,3.3378,3.3375,3.3373,3.3383,3.3386,3.3388,0,0,0,0,0,0,0,0,0,0,0,0,0,3.3356,3.3358,3.3451,3.3451,3.3451,3.3462,3.3463,3.3463,3.338,3.3378,3.3375,3.3372,3.3383,3.3385,3.3388,0,0,0,0,0,0,0,0,0,0,0,0,0,3.3385,3.3359,3.3451,3.3412,3.3408,3.3462,3.3463,3.3463,3.3381,3.3377,3.3374,3.3371,3.3382,3.3385,3.3389,3.3481,0,0,3.34,3.3401,0,0,0,0,0,0,0,0,3.3384,3.3389,3.3417,3.3414,3.3411,3.3416,3.3432,3.3469,3.3382,3.3391,3.3373,3.3369,3.3397,3.3399,3.3409,3.3481,3.3482,3.34,3.3402,3.3404,3.3405,0,0,0,0,0,0,0,3.3382,3.3388,3.3455,3.3418,3.3414,3.3393,3.3393,3.3439,3.3413,3.339,3.3384,3.3387,3.3394,3.3406,3.3408,3.3482,3.34,3.3403,3.3406,3.3407,3.363,3.3633,0,0,0,0,0,0,3.3385,3.3387,3.3455,3.3456,3.3388,3.3397,3.3398,3.3418,3.3413,3.3409,3.339,3.3383,3.3401,3.3404,3.3409,3.3516,3.3404,3.3407,3.3409,3.3626,3.363,3.3634,0,0,0,0,0,0,3.3383,3.3392,3.3455,3.342,3.3426,3.3402,3.3426,3.342,3.3431,3.3412,3.3407,3.3406,3.3398,3.3403,3.3463,3.3515,3.3409,3.3412,3.3621,3.3627,3.3632,3.3731,0,0,0,0,0,0,3.3381,3.3392,3.3427,3.3421,3.3428,3.351,3.3429,3.3423,3.3438,3.3429,3.3426,3.3422,3.3396,3.3458,3.3467,3.3518,3.3415,3.3617,3.3624,3.3631,3.3723,3.3739,3.3753,0,0,0,0,0,3.3378,3.3454,3.3429,3.3438,3.3472,3.3513,3.3517,3.3486,3.3442,3.3477,3.3465,3.3422,3.3508,3.3465,3.3474,3.3527,3.3613,3.3622,3.363,3.3716,3.3736,3.3753,0,0,0,0,0,0,3.3466,3.3453,3.3425,3.3502,3.3509,3.3499,3.3542,3.3508,3.3528,3.3519,3.3478,3.3478,3.3545,3.3542,3.3495,3.3616,3.3553,3.3563,3.3615,3.3634,3.3649,3.3648,3.3418,0,0,0,0,0,3.3495,3.3531,3.3516,3.3585,3.3591,3.3566,3.3583,3.3558,3.3564,3.3567,3.3559,3.3566,3.3594,3.3614,3.3639,3.3722,3.372,3.3763,3.3778,3.379,3.38,3.3843,3.3862,3.3662,3.3662,3.3662,0,0,3.3554,3.3551,3.3576,3.3603,3.3606,3.3643,3.3569,3.3612,3.3638,3.3573,3.3629,3.3624,3.3629,3.3701,3.3732,3.3701,3.3855,3.3801,3.3811,3.3814,3.3854,3.3873,3.389,3.3668,3.3667,3.3666,0,0,3.3681,3.3683,3.374,3.3745,3.375,3.3733,3.3747,3.3743,3.3737,3.3793,3.3744,3.3775,3.3825,3.383,3.384,3.3969,3.393,3.3978,3.4056,3.4099,3.4115,3.4129,3.4175,3.4191,3.3987,3.3988,3.3988,0,3.3754,3.3808,3.3774,3.382,3.3833,3.3776,3.3833,3.3839,3.3852,3.3863,3.3827,3.3888,3.3887,3.396,3.3991,3.4001,3.4015,3.3978,3.4116,3.4129,3.4141,3.4185,3.4202,3.3993,3.3993,3.3992,3.3992,0,3.3897,3.3936,3.3981,3.3996,3.4014,3.4066,3.4039,3.4061,3.4035,3.4022,3.4079,3.4076,3.41,3.4115,3.4089,3.4184,3.4164,3.4123,3.4059,3.4167,3.4207,3.4223,3.4002,3.4,3.3998,3.3997,0,0,3.408,3.4076,3.4093,3.4099,3.4101,3.4129,3.4178,3.4201,3.4221,3.4232,3.4272,3.4315,3.4277,3.4288,3.4262,3.43,3.4402,3.4254,3.4253,3.4281,3.4505,3.4536,3.4556,3.4376,3.4379,3.4382,3.4505,0,3.4204,3.4287,3.4258,3.4342,3.4377,3.4323,3.4365,3.4371,3.436,3.4387,3.4374,3.4406,3.4353,3.4359,3.4394,3.4382,3.4446,3.4373,3.4412,3.4414,3.4412,3.4577,3.461,3.4726,3.452,3.4523,3.4524,0,3.4359,3.4377,3.4466,3.4462,3.4475,3.4514,3.4532,3.4559,3.4564,3.4553,3.4566,3.4532,3.4578,3.4515,3.4578,3.4529,3.4543,3.454,3.4544,3.4546,3.4476,3.4583,3.4762,3.478,3.4549,3.4547,3.4545,0,3.4484,3.453,3.4589,3.4596,3.4592,3.462,3.462,3.4622,3.4637,3.4654,3.4663,3.4685,3.4697,3.4714,3.4686,3.4643,3.4754,3.4688,3.4746,3.4747,3.4771,3.477,3.4955,3.4781,3.4781,3.4781,3.478,0,3.4625,3.4682,3.4645,3.4681,3.4742,3.4707,3.4769,3.4762,3.4764,3.4797,3.4752,3.4784,3.4746,3.4775,3.4754,3.4809,3.4815,3.4807,3.4801,3.4812,3.4813,3.482,3.4811,3.4785,3.4784,3.4783,3.4783,0,3.4775,3.4753,3.4813,3.4805,3.4804,3.485,3.4842,3.4875,3.486,3.4903,3.4911,3.4889,3.492,3.4895,3.4925,3.4911,3.4985,3.4967,3.4983,3.4978,3.5037,3.5032,3.5234,3.5258,3.5069,3.5071,3.5072,0,3.4866,3.4908,3.4905,3.4924,3.4927,3.4959,3.4975,3.4942,3.496,3.4968,3.5,3.5028,3.5048,3.5101,3.5086,3.5109,3.5092,3.5161,3.5095,3.5104,3.5093,3.509,3.5094,3.5174,3.5176,3.5178,3.518,0,3.5031,3.5018,3.5043,3.5065,3.5085,3.51,3.5112,3.513,3.5096,3.5119,3.5151,3.5166,3.5197,3.5225,3.5244,3.5242,3.5206,3.5201,3.5215,3.5226,3.5234,3.523,3.502,3.5196,3.5194,3.5193,3.5192,3.5192,3.5154,3.5189,3.5192,3.5221,3.5226,3.5238,3.5268,3.5258,3.5284,3.5307,3.5285,3.5324,3.5327,3.5348,3.5351,3.538,3.5351,3.5372,3.5378,3.5383,3.5392,3.5229,3.5383,3.5383,3.5382,3.5382,3.5381,0,3.5317,3.5316,3.5343,3.5361,3.5384,3.5347,3.5358,3.5379,3.5414,3.542,3.5441,3.5477,3.5504,3.5492,3.5515,3.5541,3.5524,3.5548,3.5546,3.5546,3.5416,3.5401,3.5561,3.5561,3.5561,3.5561,3.5561,3.556,3.5404,3.5461,3.5448,3.5506,3.5505,3.5542,3.5551,3.5562,3.5566,3.5609,3.5631,3.5623,3.5622,3.5645,3.5668,3.5663,3.5674,3.5704,3.5693,3.5573,3.5555,3.5538,3.5524,3.5706,3.5706,3.582,3.5821,3.5822]}]]